Regional Weather Roundup
Issued by NWS Upton, NY

Current Version | Previous Version | Graphics & Text | Print | Product List | Glossary Off
Versions: 1 2 3 4 5 6 7 8 9 10 11 12 13 14 15 16 17 18 19 20 21 22 23 24 25 26 27

000
ASUS41 KOKX 231308
RWROKX

REGIONAL WEATHER ROUNDUP
NATIONAL WEATHER SERVICE NEW YORK NY
900 AM EDT SUN APR 23 2017

NOTE: "FAIR" INDICATES FEW OR NO CLOUDS BELOW 12,000 FEET WITH NO
SIGNIFICANT WEATHER AND/OR OBSTRUCTIONS TO VISIBILITY.

NYZ071-072-176-178-NJZ106-104-231400-
NEW YORK CITY METRO AREA

CITY           SKY/WX    TMP DP  RH WIND       PRES   REMARKS
Central Park   SUNNY     51  36  56 VRB7      30.15R
Wall St Helipt MOSUNNY   52  37  58 NE12      30.14R
Bronx Bot Gard   N/A     52  34  50 NW6       30.15R
LaGuardia APRT MOSUNNY   52  36  54 NE7       30.13R
Kennedy INTL   PTSUNNY   53  38  56 N12       30.14R
Breezy Point     N/A     48 N/A N/A NE10        N/A
Newark/Liberty MOSUNNY   52  37  56 N13       30.13R
Teterboro      SUNNY     52  36  54 N9        30.12S
$$

NYZ177-179-078>081-231400-
LONG ISLAND NEW YORK

CITY           SKY/WX    TMP DP  RH WIND       PRES   REMARKS
Jones Beach      N/A     48 N/A N/A N12         N/A
Matinecock PT  NOT AVBL
Farmingdale    CLOUDY    51  38  60 N9        30.12R
MacArthur/ISP  MOSUNNY   51  38  60 NE10      30.12R
Shirley        MOSUNNY   49  39  68 VRB5      30.12R
Mt Sinai Harb    N/A    N/A N/A N/A NW1         N/A
Westhampton    CLOUDY    50  36  58 N8        30.13R
East Hampton     N/A     48  36  62 N7        30.10S
Montauk          N/A     48  39  71 N7        30.11R
$$

NYZ052-065-067-231400-
HUDSON VALLEY

CITY           SKY/WX    TMP DP  RH WIND       PRES   REMARKS
White Plains   SUNNY     50  34  54 NE10      30.11R
Larchmont Harb   N/A     48 N/A N/A NE9         N/A
Croton O-T Hud   N/A     52 N/A N/A N5          N/A
Newburgh       SUNNY     46  39  76 CALM      30.14R
Montgomery     SUNNY     49  38  65 CALM      30.12R
Poughkeepsie   SUNNY     48  36  63 CALM      30.13R
Albany         MOSUNNY   49  37  63 N3        30.13S
$$

NJZ001-105-106-008-010-013-015-019>022-104-231400-
NEW JERSEY

CITY           SKY/WX    TMP DP  RH WIND       PRES   REMARKS
Newark/Liberty MOSUNNY   52  37  56 N13       30.13R
Teterboro      SUNNY     52  36  54 N9        30.12S
Caldwell       SUNNY     51  36  56 VRB7      30.14R
Somerville     SUNNY     53  35  50 NE6       30.12R
Linden           N/A     52  34  50 NE10      30.14R
Sussex         SUNNY     48  38  68 CALM      30.14R
Andover          N/A     48  36  63 VRB3      30.14R
Trenton        SUNNY     52  38  58 NE9       30.12S
Millville      MOSUNNY   50  40  68 NE12      30.12R
Atlantic City  MOSUNNY   50  40  68 NE10      30.12R
Wrightstown    MOSUNNY   50  40  67 N10       30.11R
Toms River     CLOUDY    50  43  77 N8        30.13R
Belmar         MOSUNNY   50  37  61 N13       30.13R
$$

PAZ047>061-062-071-231400-
EASTERN PENNSYLVANIA

CITY           SKY/WX    TMP DP  RH WIND       PRES   REMARKS
Philadelphia   MOSUNNY   51  37  58 NE10      30.14R
Allentown      SUNNY     50  36  58 E3        30.14R
Scranton       SUNNY     45  36  70 CALM      30.14R
$$

CTZ002-004>006-009-010-012-RIZ004-006-007-MAZ004-011-015-231400-
SOUTHERN NEW ENGLAND
 IN CT

CITY           SKY/WX    TMP DP  RH WIND       PRES   REMARKS
Bradley INTL   MOSUNNY   51  35  54 N8        30.11R
Hartford       SUNNY     51  36  56 NW10      30.11R
Danbury        SUNNY     49  37  63 N8        30.13R
Wtrbury/Oxford MOSUNNY   46  36  66 N7        30.12R
Bridgeport     SUNNY     53  36  52 N10       30.12R
Meriden        SUNNY     52  35  52 N9        30.12R
New Haven      MOSUNNY   50  37  61 N9        30.11S
Chester          N/A     50  36  57 N9        30.10S
Groton         SUNNY     52  37  56 N13       30.09R
Wilimantic     SUNNY     52  36  54 N8        30.10R

 IN RI

CITY           SKY/WX    TMP DP  RH WIND       PRES   REMARKS
Providence     SUNNY     51  38  60 N15       30.09R
Block Island   CLOUDY    48  39  71 N13       30.09R
Westerly       SUNNY     52  37  56 N10G21    30.09S
 IN MA

CITY           SKY/WX    TMP DP  RH WIND       PRES   REMARKS
Boston         MOSUNNY   49  37  63 N8        30.09R
Worcester      SUNNY     46  32  58 N14       30.07R
Westfield      SUNNY     51  36  56 N9        30.10S
Provincetown   SUNNY     46  41  82 NW9       30.09R
Nantucket      CLOUDY    48  41  76 NW10      30.07R
$$

ANZ330-335-338-340-345-350-353-355-231400-
COASTAL MARINE OBSERVATIONS


STATION/POSITION TIME  SKY/WX   TEMP    WIND        PRES    VSBY  WAVE
                                AIR SEA DIR/SP/G                  HT/PER
                 (UTC)          (F)     (DEG/KT/KT) (MB)    (MI)  (FT/S)
NY HARB ENTRANCE 1150            49 49   20/ 12/ 14 1019.4          4/10
20 S FIRE ISLAND 1150            48 48   10/ 14/ 16 1018.7          4/10
GREAT SOUTH BAY  1230            49 55   30/ 10/ 14   N/A
23 SSW MONTAUK P 1150            46 45              1019.4          4/11
15 E BARNEGAT LI 1230               50                N/A           5/11
HUDSON CANYON    1150            47 47   60/  4/  6 1018.8          5/11
KINGS POINT      1230            48 46   60/  4/  6 1020.1
EXECUTION ROCKS  NOT AVBL
CENTRAL LI SOUND 1230            47     360/  6/  8   N/A           0
EASTERN LI SOUND NOT AVBL
ROBBINS REEF     1242            49      10/ 13/ 14 1020.4
$$


>>>>>>>>>>>>>>>>>>>>>>>>>>>> KEY <<<<<<<<<<<<<<<<<<<<<<<<<<<
>                                                          <
>     SKY/WX - Sky Condition/Present Weather               <
>     TMP    - Temperature in Fahrenheit                   <
>     DP     - Dew Point in Fahrenheit                     <
>     RH     - Relative Humidity in Percent                <
>     WIND   - Direction (from) and Speed in MPH           <
>     PRES   - Mean Sea Level Pressure (inches of Hg)      <
>     WCI    - Wind Chill Index                            <
>     VSB    - VISIBILITY IN MILES                         <
>     HX     - HEAT INDEX                                  <
>     TC     - TEMPERATURE IN CELSIUS                      <
>     VRB    - VARIABLE WIND DIRECTION                     <
>                                                          <
>>>>>>>>>>>>>>>>>>>>>>>>>>>> KEY <<<<<<<<<<<<<<<<<<<<<<<<<<<




USA.gov is the U.S. government's official web portal to all federal, state and local government web resources and services.